Location: Newark
(55.7167°N, 12.5667°E)
Time: 02:25:12
(UTC+00:00)

N. Korean satellite - Pass Details

Date: 10 December 2019
Orbit: 454 x 507 km, 97.2° (Epoch: 25 January)

Event Time Altitude Azimuth Distance (km) Brightness Sun altitude
Rises 06:30:57 0° 4° (N) 2,576 10.0 -7.2°
Reaches altitude 10° 06:33:26 10° 347° (NNW) 1,678 8.9 -6.9°
Maximum altitude 06:36:04 19° 300° (WNW) 1,190 7.9 -6.6°
Drops below altitude 10° 06:38:39 10° 253° (WSW) 1,646 8.9 -6.3°
Sets 06:41:04 0° 236° (SW) 2,508 10.0 -6.0°
